Rifle, CO

3:58 PM MDT on September 21, 2017 (GMT -0600)
Garfield County Regional

Weather History for KRIL - May, 2012

Change the Weather History Date:

Saturday, May 5, 2012

  Actual Average Record
Temperature  
Mean Temperature 59 °F 53 °F  
Max Temperature 77 °F 69 °F 89 °F (1936)
Min Temperature 40 °F 38 °F 23 °F (1991)
Degree Days  
Heating Degree Days 6 12  
Month to date heating degree days 30 62  
Since 1 July heating degree days 5863 6359  
Cooling Degree Days 0 0  
Month to date cooling degree days 0 0  
Year to date cooling degree days 0 0  
Growing Degree Days 10 (Base 50)    
Moisture  
Dew Point 20 °F    
Average Humidity 27    
Maximum Humidity 43    
Minimum Humidity 10    
Precipitation  
Precipitation 0.00 in 0.05 in 0.40 in (2015)
Month to date precipitation 0.04 0.26  
Year to date precipitation 2.47 4.17  
Sea Level Pressure  
Sea Level Pressure 29.84 in    
Wind  
Wind Speed 13 mph (WNW)    
Max Wind Speed 29 mph    
Max Gust Speed 36 mph    
Visibility 10 miles    
Events      
T = Trace of Precipitation, MM = Missing Value Source: NWS Daily Summary

Daily Weather History Graph

Daily Weather History Graph

Search for Another Location

Airport or City:

Trip Planner

Search our weather history database for the weather conditions in past years. The results will help you decide how hot, cold, wet, or windy it might be!

Date:

Astronomy

May. 05, 2012 Rise Set
Actual Time 6:06 AM MDT 8:09 PM MDT
Civil Twilight 5:37 AM MDT 8:38 PM MDT
Nautical Twilight 5:01 AM MDT 9:14 PM MDT
Astronomical Twilight 4:22 AM MDT 9:54 PM MDT
Moon 8:05 PM MDT (5/5) 5:31 AM MDT (5/5)
Length of Visible Light 15h 01m
Length of Day
14h 02m
Full, 100% of the Moon is Illuminated
May 5
Full
May 5
Full
May 12
Last Quarter
May 20
New
May 28
First Quarter

Hourly Weather History & Observations

Time (MDT) Temp. Windchill Dew Point Humidity Pressure Visibility Wind Dir Wind Speed Gust Speed Precip Events Conditions
12:53 AM 51.1 °F - 19.9 °F 29% 29.78 in 10.0 mi Calm Calm - N/A   Clear
1:53 AM 48.0 °F - 23.0 °F 37% 29.77 in 10.0 mi SSW 3.5 mph - N/A   Clear
2:53 AM 48.9 °F - 21.0 °F 33% 29.76 in 10.0 mi ENE 3.5 mph - N/A   Clear
3:53 AM 46.9 °F - 24.1 °F 41% 29.78 in 10.0 mi West 3.5 mph - N/A   Clear
4:53 AM 46.0 °F - 19.9 °F 35% 29.80 in 10.0 mi Calm Calm - N/A   Clear
5:53 AM 42.1 °F 40.2 °F 19.9 °F 41% 29.84 in 10.0 mi West 3.5 mph - N/A   Clear
6:53 AM 43.0 °F 41.3 °F 21.0 °F 42% 29.86 in 10.0 mi ENE 3.5 mph - N/A   Clear
7:53 AM 48.9 °F - 26.1 °F 41% 29.86 in 10.0 mi ENE 5.8 mph - N/A   Clear
8:53 AM 57.0 °F - 24.1 °F 28% 29.85 in 10.0 mi Calm Calm - N/A   Clear
9:53 AM 66.0 °F - 21.9 °F 19% 29.82 in 10.0 mi WNW 8.1 mph - N/A   Clear
10:53 AM 71.1 °F - 21.9 °F 16% 29.81 in 10.0 mi West 19.6 mph 26.5 mph N/A   Clear
11:53 AM 73.9 °F - 21.9 °F 14% 29.79 in 10.0 mi West 19.6 mph - N/A   Clear
12:53 PM 75.0 °F - 21.9 °F 14% 29.78 in 10.0 mi WNW 24.2 mph 29.9 mph N/A   Clear
1:53 PM 77.0 °F - 21.0 °F 12% 29.79 in 10.0 mi West 25.3 mph 31.1 mph N/A   Clear
2:53 PM 77.0 °F - 21.0 °F 12% 29.79 in 10.0 mi West 28.8 mph 34.5 mph N/A   Clear
3:53 PM 75.9 °F - 19.9 °F 12% 29.80 in 10.0 mi West 20.7 mph 32.2 mph N/A   Clear
4:53 PM 75.0 °F - 16.0 °F 11% 29.81 in 10.0 mi West 19.6 mph 29.9 mph N/A   Clear
5:53 PM 73.0 °F - 16.0 °F 11% 29.85 in 10.0 mi WNW 23.0 mph 29.9 mph N/A   Clear
6:06 PM 71.6 °F - 23.0 °F 16% 29.98 in 10.0 mi NW 20.7 mph 29.9 mph N/A   Clear
6:53 PM 68.0 °F - 21.0 °F 17% 29.87 in 10.0 mi NW 21.9 mph 28.8 mph N/A   Clear
7:53 PM 64.0 °F - 15.1 °F 15% 29.90 in 10.0 mi NW 17.3 mph 26.5 mph N/A   Clear
8:53 PM 61.0 °F - 12.9 °F 15% 29.93 in 10.0 mi NW 12.7 mph 20.7 mph N/A   Clear
9:53 PM 59.0 °F - 12.0 °F 16% 29.93 in 10.0 mi WNW 12.7 mph - N/A   Clear
10:53 PM 55.9 °F - 18.0 °F 23% 29.94 in 10.0 mi NW 6.9 mph - N/A   Partly Cloudy
11:53 PM 53.1 °F - 16.0 °F 23% 29.95 in 10.0 mi WNW 11.5 mph - N/A   Clear